AirNav   Air Wisconsin pilot careers
 
 585 users online  

KANP Lee Airport
Annapolis, Maryland, USA

GOING TO ANNAPOLIS?


FAA INFORMATION EFFECTIVE 11 OCTOBER 2018

Location

FAA Identifier: ANP
Lat/Long: 38-56-34.3600N / 076-34-06.2370W
38-56.572667N / 076-34.103950W
38.9428778 / -76.5683992
(estimated)
Elevation: 34.2 ft. / 10 m (estimated)
Variation: 10W (1985)
From city: 5 miles SW of ANNAPOLIS, MD
Time zone: UTC -4 (UTC -5 during Standard Time)
Zip code: 21037

Airport Operations

Airport use: Open to the public
Activation date: 06/1942
Control tower: no
ARTCC: WASHINGTON CENTER
FSS: LEESBURG FLIGHT SERVICE STATION
NOTAMs facility: DCA (NOTAM-D service available)
Attendance: 0700-1700
CONTACT AIRPORT MANAGER 410-956-1280 FOR APPROVAL OF ANY FLIGHT OPERATIONS BETWEEN 2200 - 0700 LOCAL. ARPT UNATNDD NEW YEARS; MEMORIAL DAY; JULY 4; LABOR DAY; THANKSGIVING & CHRISTMAS.
Pattern altitude: 1034.2 ft. MSL
Wind indicator: lighted
Segmented circle: no
Lights: ACTVT LIRL RWY 12/30 - CTAF. LIGHTING INOP BTW 2200-0700.
Beacon: white-green (lighted land airport)
DUSK-2200.
Landing fee: yes

Airport Communications

CTAF: 122.9
POTOMAC APPROACH: 119.7
POTOMAC DEPARTURE: 119.7
WX AWOS-3 at W29 (11 nm E): 120.575 (410-643-8795)
WX AWOS-3 at FME (12 nm NW): 123.925
WX ASOS at BWI (15 nm N): PHONE 410-691-1278
WX AWOS-3 at CGS (17 nm W): 121.225 (301-864-5497)

Nearby radio navigation aids

VOR radial/distance  VOR name  Freq  Var
BALr173/14.4BALTIMORE VORTAC115.1011W
ADWr070/16.1ANDREWS VORTAC113.1010W
OTTr040/16.4NOTTINGHAM VORTAC113.7010W
DCAr086/22.4WASHINGTON VOR/DME111.0009W
PPMr219/36.5PHILLIPS VOR/DME108.4009W
EMIr158/38.2WESTMINSTER VORTAC117.9008W

 
NDB name  Hdg/Dist  Freq  Var  ID
ELLICOTT166/22.837111WFND ..-. -. -..
OXONN075/23.933211WDCA -.. -.-. .-
GEORGETOWN097/26.032309WGTN --. - -.
DAVEE065/30.422309WDAA -.. .- .-

Airport Services

Fuel available: 100LL
Parking: tiedowns
Airframe service: MAJOR
Powerplant service: MAJOR

Runway Information

Runway 12/30

Dimensions: 2500 x 48 ft. / 762 x 15 m
Surface: asphalt, in fair condition
MINOR PAVEMENT CRACKS FULL LENGTH.
Runway edge lights: low intensity
RUNWAY 12  RUNWAY 30
Latitude: 38-56.634583N38-56.510733N
Longitude: 076-34.355417W076-33.852483W
Elevation: 30.6 ft.31.3 ft.
Traffic pattern: leftleft
Runway heading: 118 magnetic, 108 true298 magnetic, 288 true
Displaced threshold: 476 ft.321 ft.
Markings: basic, in fair conditionnonprecision, in fair condition
Visual slope indicator: 2-light PAPI on left (5.75 degrees glide path)
VGSI APCHS TO BE FLOWN. RY 12 VGSI RELIABLE ON CENTERLINE ONLY.
2-light PAPI on right (4.25 degrees glide path)
Touchdown point: yes, no lightsyes, no lights
Obstructions: 67 ft. trees, 640 ft. from runway, 165 ft. left of centerline, 6:1 slope to clear
6 FT FENCE ACROSS APCH END MARKED. 10 FT ROAD 156 FT FM THLD.
35 ft. trees, 681 ft. from runway, 13:1 slope to clear
+6 FT FENCE ACROSS APCH END MKD. +15 FT PUBLIC ROAD AT THLD, R OF CNTRLN.

Airport Ownership and Management from official FAA records

Ownership: Privately-owned
Owner: LEE AIRPORT AUTHORITY LLC
P.O. BOX 236
QUEENSTOWN, MD 21658
Phone 410-956-1280
CORPORATION ESTABLISHED BY MARY C. LEE
Manager: LEE RUNWAY MANAGER LLC
P.O. BOX 236
QUEENSTOWN, MD 21658
Phone 410-956-1280

Airport Operational Statistics

Aircraft based on the field: 72
Single engine airplanes: 70
Multi engine airplanes: 2
    
Aircraft operations: avg 32/day *
84% local general aviation
13% transient general aviation
3% military
* for 12-month period ending 03 April 2018

Additional Remarks

NO LANDING ON GRASS. LDG FEE AFTER ONE HOUR OR OVERNIGHT.
TOUCH & GO OPNS PROHIBITED.
NO TAKE-OFFS AFTER 2200 DAILY.
NO GRASS CROSSOVER FM RY 12/30 TO TWY ROLLOUT TO THE END OF RY.
HEAVY BIRD AND WILDLIFE ACTIVITY ON AND INVOF AIRPORT.
ARPT CLSD 2200-0700 LCL, CTC ARPT MANAGER FOR DETAILS.
FOR CD CTC POTOMAC APCH AT 866-429-5882.

Instrument Procedures

NOTE: All procedures below are presented as PDF files. If you need a reader for these files, you should download the free Adobe Reader.

NOT FOR NAVIGATION. Please procure official charts for flight.
FAA instrument procedures published for use from 11 October 2018 at 0901Z to 8 November 2018 at 0900Z.

 
IAPs - Instrument Approach Procedures
RNAV (GPS)-A **CHANGED**   download (191KB)
NOTE: Special Alternate Minimums apply   download (22KB)
NOTE: Special Take-Off Minimums/Departure Procedures apply   download (140KB)

Other nearby airports with instrument procedures:

W00 - Freeway Airport (10 nm W)
W29 - Bay Bridge Airport (11 nm E)
KFME - Tipton Airport (12 nm NW)
KBWI - Baltimore/Washington International Thurgood Marshall Airport (15 nm N)
KADW - Joint Base Andrews (16 nm SW)
KCGS - College Park Airport (17 nm W)
 
Loc | Ops | Rwys | IFR | FBO | Links
Com | Nav | Svcs | Stats | Notes


 
Area around KANP (Lee Airport)
 
Road maps at: MapQuest Bing Google
 
Aerial photo
WARNING: Photo may not be current or correct
Aerial photo of KANP (Lee Airport)
Photo taken 19-Oct-2016
looking northeast.

Do you have a better or more recent aerial photo of Lee Airport that you would like to share? If so, please send us your photo.

 
Sectional chart

 
Airport distance calculator
Flying to Lee Airport? Find the distance to fly.

From to KANP

Sunrise and sunset
Times for 20-Oct-2018
 Local
(UTC-4)
 Zulu
(UTC)
Morning civil twilight06:5510:55
Sunrise07:2211:22
Sunset18:2022:20
Evening civil twilight18:4722:47

Current date and time
Zulu (UTC)  20-Oct-2018 05:30:37
Local (UTC-4)  20-Oct-2018 01:30:37
 
METAR
KANP SuperAWOS
200455Z AUTO 00000KT 10SM 14/09 A2991
KNAK 
5nm NE 
200454Z AUTO VRB03KT 10SM -RA OVC100 16/09 A2991 RMK AO2 RAB22 SLP130 P0000 T01610089 401940061
KW29 
11nm E 
200500Z AUTO 22009G14KT 10SM -RA OVC100 15/10 A2992 RMK AO2
KFME 
13nm NW 
200503Z AUTO 22005KT 10SM OVC090 11/10 A2993 RMK AO1
KBWI 
14nm N 
200454Z 22008KT 9SM -RA BKN095 OVC110 13/09 A2990 RMK AO2 RAB0359 SLP124 P0001 T01330094 401780017
KADW 
16nm SW 
200456Z AUTO 21009KT 10SM -RA SCT055 13/09 A2991 RMK AO2 RAB0356 SLP135 P0001 T01320093 401750026 $
KCGS 
17nm W 
200502Z AUTO 19003KT 10SM OVC090 13/10 A2991 RMK AO1 T01320096
TAF
KBWI 
14nm N 
192057Z 1921/2024 22009KT P6SM FEW150 SCT200 BKN250 FM200400 22008KT P6SM OVC110 FM200700 22009KT P6SM -SHRA OVC060 FM201000 22008KT P6SM OVC050 FM201500 26008KT P6SM BKN040 FM201700 27009KT P6SM SCT040
KADW 
16nm SW 
200230Z 2002/2107 20015G25KT 9999 BKN160 QNH2994INS BECMG 2003/2004 21012G18KT 6000 -RA BKN020 QNH2984INS TEMPO 2004/2009 23015G25KT BECMG 2008/2009 22012G18KT 8000 -RA OVC005 QNH2980INS BECMG 2012/2013 22009KT 8000 BR OVC010 QNH2978INS BECMG 2017/2018 25012G18KT 9999 NSW OVC030 QNH2972INS BECMG 2023/2024 30009KT 9999 BKN050 QNH2974INS TX17/2018Z TN11/2009Z
NOTAMs
Click for the latest NOTAMs
NOTAMs are issued by the DoD/FAA and will open in a separate window not controlled by AirNav.

 

 
 

FBO, Fuel Providers, and Aircraft Ground Support

  
 Business Name 
 
 Contact 
 
 Services / Description 
 
Fuel Prices
 
Comments
  
Lee Runway Manager, LLC 410-956-1280
410-956-4129
[email]
Airport management, Aviation fuel, Aircraft parking (ramp or tiedown), Hangar leasing / sales, Pilot school (FAR Part 141), Flight training, ...

More info about Lee Runway Manager, LLC
Phillips 66
100LL
FS $5.50 
 Updated 16-Oct-2018
 
   2 read write
FS=Full service
Update Fuel Prices
 

Where to Eat: Catering, Restaurants, Food shops

  
 Business Name 
 
 Contact 
 
 Services / Description 
 
Distance
 
Comments
  
Ledo Pizza 410-956-6700
no information available

If you are affiliated with Ledo Pizza and would like to show here your services, contact info, web link, logo, and more, click here
0.1 miles  
   1 read write
Hayman's Crab House 410-956-2023
no information available

If you are affiliated with Hayman's Crab House and would like to show here your services, contact info, web link, logo, and more, click here
0.2 miles  
   write
 

Would you like to see your business listed on this page?

 If your business provides an interesting product or service to pilots, flight crews, aircraft, or users of the Lee Airport, you should consider listing it here.  To start the listing process, click on the button below
 
Add a business
 

Other Pages about Lee Airport

www.leeairport.org
www.presgroup.com/...
 
Update a link
 
Copyright © AirNav, LLC. All rights reserved. Privacy Policy  Contact